FIN1401 EFHK-EDDM

Flight info

Callsign FIN1401
Flight time N/A
Altitude 40000
Route VALOX4N/22R VALOX Y117 ROSAX DCT PIMEX P739 DEREX DCT ANFEV DCT PENOR DCT DOSAL DCT GOVEN DCT KOBUS DCT MAREM DCT VESUB T106 TUSTO T108 LANDU LANDU2B
Aircraft A359/H-SDE2E3GHIJ3J4J5LM1ORWXY/LB1D1

Departure

Time N/A
Airport Helsinki Vantaa Airport (EFHK)

Arrival

Time 2026-05-03 20:50
Airport Munich Airport (EDDM)
Time Latitude Longitude Altitude Speed Heading
2026-05-03 20:16 51.31149 13.99497 40087 ft 429 kts 208°
2026-05-03 20:16 51.25456 13.96236 39976 ft 443 kts 198°
2026-05-03 20:17 51.19509 13.93262 39933 ft 451 kts 201°
2026-05-03 20:17 51.13574 13.89776 39940 ft 458 kts 203°
2026-05-03 20:18 51.07601 13.85956 39939 ft 465 kts 204°
2026-05-03 20:18 51.02317 13.82526 39938 ft 465 kts 204°
2026-05-03 20:19 50.96359 13.78682 39940 ft 465 kts 204°
2026-05-03 20:19 50.90389 13.74860 39946 ft 466 kts 204°
2026-05-03 20:20 50.85357 13.71653 39953 ft 466 kts 204°
2026-05-03 20:20 50.79381 13.67853 39958 ft 466 kts 204°
2026-05-03 20:21 50.73375 13.64045 39954 ft 465 kts 204°
2026-05-03 20:21 50.67326 13.60440 39960 ft 464 kts 200°
2026-05-03 20:22 50.61138 13.57459 39954 ft 465 kts 198°
2026-05-03 20:22 50.54940 13.54539 39972 ft 465 kts 199°
2026-05-03 20:23 50.48759 13.51531 39964 ft 464 kts 199°
2026-05-03 20:23 50.42632 13.48501 39952 ft 464 kts 199°
2026-05-03 20:24 50.36473 13.45450 39962 ft 464 kts 199°
2026-05-03 20:24 50.30320 13.42414 39961 ft 464 kts 199°
2026-05-03 20:25 50.24156 13.39384 39944 ft 464 kts 199°
2026-05-03 20:25 50.17989 13.36362 39943 ft 464 kts 199°
2026-05-03 20:26 50.11830 13.33352 39945 ft 464 kts 199°
2026-05-03 20:26 50.05703 13.30365 39898 ft 462 kts 199°
2026-05-03 20:26 50.02635 13.28874 39347 ft 461 kts 199°
2026-05-03 20:27 49.99562 13.27381 38629 ft 464 kts 199°
2026-05-03 20:27 49.96475 13.25882 37776 ft 465 kts 199°
2026-05-03 20:27 49.93374 13.24379 36899 ft 468 kts 199°
2026-05-03 20:27 49.90256 13.22870 36044 ft 470 kts 199°
2026-05-03 20:28 49.87123 13.21355 35181 ft 472 kts 199°
2026-05-03 20:28 49.83978 13.19837 34367 ft 474 kts 199°
2026-05-03 20:28 49.80817 13.18314 33604 ft 474 kts 199°
2026-05-03 20:28 49.77684 13.16807 32878 ft 471 kts 199°
2026-05-03 20:29 49.74564 13.15309 32320 ft 466 kts 199°
2026-05-03 20:29 49.71485 13.13833 31789 ft 461 kts 199°
2026-05-03 20:29 49.68480 13.12394 31289 ft 455 kts 199°
2026-05-03 20:29 49.65432 13.10936 30769 ft 450 kts 198°
2026-05-03 20:30 49.62484 13.09526 30275 ft 446 kts 198°
2026-05-03 20:30 49.59532 13.08117 29741 ft 442 kts 198°
2026-05-03 20:30 49.56613 13.06725 29214 ft 436 kts 198°
2026-05-03 20:30 49.53729 13.05352 28733 ft 430 kts 198°
2026-05-03 20:31 49.50887 13.04001 28255 ft 425 kts 198°
2026-05-03 20:31 49.48077 13.02666 27771 ft 420 kts 198°
2026-05-03 20:31 49.45301 13.01349 27291 ft 415 kts 198°
2026-05-03 20:31 49.42568 12.99980 26814 ft 410 kts 202°
2026-05-03 20:32 49.39965 12.98277 26363 ft 405 kts 205°
2026-05-03 20:32 49.37402 12.96487 25894 ft 401 kts 206°
2026-05-03 20:32 49.34884 12.94671 25438 ft 398 kts 206°
2026-05-03 20:32 49.32389 12.92845 24966 ft 395 kts 206°
2026-05-03 20:33 49.29927 12.91035 24488 ft 392 kts 206°
2026-05-03 20:33 49.27505 12.89258 24044 ft 390 kts 206°
2026-05-03 20:33 49.25060 12.87472 23565 ft 387 kts 206°
2026-05-03 20:33 49.22628 12.85702 23037 ft 384 kts 206°
2026-05-03 20:34 49.20227 12.83963 22585 ft 379 kts 206°
2026-05-03 20:34 49.17865 12.82251 22091 ft 374 kts 206°
2026-05-03 20:34 49.15521 12.80552 21654 ft 370 kts 206°
2026-05-03 20:34 49.13205 12.78875 21218 ft 365 kts 206°
2026-05-03 20:35 49.10924 12.77223 20777 ft 361 kts 206°
2026-05-03 20:35 49.08663 12.75589 20322 ft 358 kts 206°
2026-05-03 20:35 49.06424 12.73971 19888 ft 355 kts 206°
2026-05-03 20:35 49.04204 12.72368 19447 ft 352 kts 206°
2026-05-03 20:36 49.01992 12.70777 19017 ft 349 kts 206°
2026-05-03 20:36 48.99833 12.69228 18584 ft 346 kts 206°
2026-05-03 20:36 48.97665 12.67674 18156 ft 343 kts 205°
2026-05-03 20:36 48.95512 12.66132 17700 ft 340 kts 205°
2026-05-03 20:37 48.93382 12.64607 17281 ft 336 kts 205°
2026-05-03 20:37 48.91273 12.63099 16856 ft 333 kts 205°
2026-05-03 20:37 48.89189 12.61605 16433 ft 330 kts 205°
2026-05-03 20:37 48.87123 12.60129 16041 ft 327 kts 205°
2026-05-03 20:38 48.85068 12.58669 15631 ft 324 kts 205°
2026-05-03 20:38 48.83030 12.57223 15216 ft 322 kts 205°
2026-05-03 20:38 48.81008 12.55790 14837 ft 320 kts 205°
2026-05-03 20:38 48.79024 12.54385 14442 ft 318 kts 205°
2026-05-03 20:39 48.76984 12.52986 14001 ft 317 kts 202°
2026-05-03 20:39 48.74960 12.51786 13627 ft 315 kts 201°
2026-05-03 20:39 48.72910 12.50635 13219 ft 313 kts 200°
2026-05-03 20:39 48.70868 12.49524 12831 ft 310 kts 200°
2026-05-03 20:40 48.68844 12.48442 12449 ft 307 kts 200°
2026-05-03 20:40 48.66839 12.47375 12059 ft 305 kts 199°
2026-05-03 20:40 48.64839 12.46299 11683 ft 304 kts 200°
2026-05-03 20:40 48.62969 12.44809 11292 ft 304 kts 215°
2026-05-03 20:41 48.61509 12.42600 11126 ft 293 kts 234°
2026-05-03 20:41 48.60657 12.39876 11002 ft 283 kts 253°
2026-05-03 20:41 48.60315 12.36986 10874 ft 275 kts 261°
2026-05-03 20:41 48.60103 12.34138 10650 ft 271 kts 262°
2026-05-03 20:42 48.59907 12.31327 10128 ft 277 kts 262°
2026-05-03 20:42 48.59688 12.28391 9463 ft 285 kts 261°
2026-05-03 20:42 48.59010 12.25594 8941 ft 284 kts 235°
2026-05-03 20:42 48.57608 12.23546 8504 ft 281 kts 211°
2026-05-03 20:43 48.55803 12.22498 8097 ft 278 kts 189°
2026-05-03 20:43 48.53913 12.22153 7906 ft 268 kts 185°
2026-05-03 20:43 48.52095 12.21934 7731 ft 255 kts 184°
2026-05-03 20:43 48.50385 12.21742 7334 ft 246 kts 185°
2026-05-03 20:44 48.48655 12.21547 6817 ft 248 kts 184°
2026-05-03 20:44 48.46976 12.20962 6461 ft 247 kts 201°
2026-05-03 20:44 48.45459 12.19778 6129 ft 245 kts 212°
2026-05-03 20:44 48.44030 12.18378 5820 ft 244 kts 214°
2026-05-03 20:45 48.42616 12.16960 5482 ft 243 kts 214°
2026-05-03 20:45 48.41201 12.15561 5146 ft 243 kts 214°
2026-05-03 20:45 48.39849 12.14050 4763 ft 242 kts 230°
2026-05-03 20:45 48.39069 12.11868 4485 ft 233 kts 255°
2026-05-03 20:46 48.38792 12.09534 4363 ft 221 kts 266°
2026-05-03 20:46 48.38643 12.07286 4253 ft 211 kts 265°
2026-05-03 20:46 48.38482 12.05147 4129 ft 201 kts 264°
2026-05-03 20:46 48.38317 12.03154 4072 ft 187 kts 265°
2026-05-03 20:47 48.38155 12.01281 3935 ft 176 kts 264°
2026-05-03 20:47 48.38008 11.99487 3719 ft 170 kts 265°
2026-05-03 20:47 48.37878 11.97748 3497 ft 164 kts 266°
2026-05-03 20:47 48.37752 11.96071 3284 ft 158 kts 266°
2026-05-03 20:48 48.37630 11.94469 3084 ft 150 kts 266°
2026-05-03 20:48 48.37511 11.92919 2889 ft 147 kts 266°
2026-05-03 20:48 48.37397 11.91434 2696 ft 139 kts 266°
2026-05-03 20:48 48.37288 11.89997 2514 ft 138 kts 266°
2026-05-03 20:49 48.37182 11.88561 2362 ft 139 kts 266°
2026-05-03 20:49 48.37078 11.87136 2149 ft 139 kts 265°
2026-05-03 20:49 48.36963 11.85683 1976 ft 141 kts 264°
2026-05-03 20:49 48.36849 11.84207 1793 ft 142 kts 265°
2026-05-03 20:50 48.36732 11.82734 1612 ft 142 kts 263°
2026-05-03 20:50 48.36623 11.81263 1497 ft 138 kts 264°
2026-05-03 20:50 48.36527 11.80018 1481 ft 93 kts 263°
2026-05-03 20:50 48.36478 11.79395 1479 ft 33 kts 263°
2026-05-03 20:51 48.36456 11.79107 1479 ft 26 kts 258°
2026-05-03 20:51 48.36380 11.78869 1476 ft 25 kts 238°
2026-05-03 20:51 48.36286 11.78668 1478 ft 22 kts 232°
2026-05-03 20:51 48.36189 11.78502 1478 ft 19 kts 215°
2026-05-03 20:52 48.36084 11.78484 1483 ft 11 kts 176°
2026-05-03 20:52 48.36037 11.78543 1479 ft 10 kts 100°
2026-05-03 20:52 48.36046 11.78679 1486 ft 16 kts 81°
2026-05-03 20:52 48.36061 11.78878 1481 ft 22 kts 85°
2026-05-03 20:53 48.36077 11.79108 1478 ft 18 kts 84°
2026-05-03 20:53 48.36088 11.79263 1479 ft 9 kts 87°
2026-05-03 20:53 48.36048 11.79322 1478 ft 11 kts 163°
2026-05-03 20:53 48.35957 11.79346 1485 ft 10 kts 166°
2026-05-03 20:54 48.35886 11.79375 1484 ft 13 kts 169°
2026-05-03 20:54 48.35629 11.79423 1484 ft 20 kts 173°
2026-05-03 20:54 48.35549 11.79436 1479 ft 2 kts 174°
2026-05-03 20:55 48.35546 11.79437 1480 ft 0 kts 174°
2026-05-03 20:55 48.35515 11.79419 1476 ft 9 kts 228°
2026-05-03 20:55 48.35500 11.79332 1477 ft 7 kts 264°
2026-05-03 20:55 48.35498 11.79297 1488 ft 1 kts 263°
2026-05-03 20:56 48.35498 11.79295 1492 ft 1 kts 263°
2026-05-03 20:56 48.35497 11.79293 1492 ft 0 kts 263°